Wind_Speed
47 49 51 53 54 54 54 54 54 54 54 54 54 55 55 55 55 54 53 52 51 50 50 51 51 52 52 53 53 54 54 54 53 51 47 45 46 44 41 41 41 41 43 46 48 49 48 48 47 46 45 44 42 40 39 38 37 36 36 36 35 34 34 34 35 35 35 33 29 25 20 23 33 38 38 41 46 49 50 49 48 42 40 44 44 42 43 43
46 47 50 52 54 55 55 55 55 55 55 55 55 55 56 56 56 56 56 55 54 52 51 50 51 52 53 53 53 53 54 54 54 52 50 50 49 46 42 41 41 41 40 42 44 46 48 48 48 48 47 46 44 42 41 40 39 38 36 36 33 30 28 28 30 30 31 31 27 24 20 22 32 38 41 44 48 50 50 50 43 36 36 40 39 38 39 38
45 46 48 50 52 54 56 56 56 56 56 56 55 56 56 56 57 57 57 57 56 55 53 51 51 51 53 54 54 53 53 54 54 53 53 54 52 48 46 44 43 42 39 39 40 42 45 47 48 48 48 47 46 45 43 42 41 39 38 36 32 29 28 27 26 26 26 24 21 23 25 29 34 36 39 42 45 47 47 45 35 30 34 37 37 35 35 34
44 45 46 48 50 52 54 56 56 57 57 57 57 57 57 57 57 57 58 58 58 57 55 53 52 51 51 53 54 54 53 53 54 54 55 56 54 52 50 47 46 44 41 39 38 39 41 43 46 48 48 48 47 47 45 44 43 41 39 35 32 31 30 27 25 24 21 18 19 24 28 34 35 36 40 40 41 44 45 41 31 30 33 36 37 33 33 32
43 44 46 47 48 50 52 54 56 57 57 57 58 58 58 58 58 58 58 58 58 58 57 56 54 53 51 51 52 54 54 54 54 54 55 56 56 55 53 50 48 47 44 41 39 39 39 39 42 44 46 47 47 47 46 45 44 43 40 36 34 34 32 28 27 23 18 18 23 30 28 35 39 41 40 37 37 38 37 35 32 34 34 35 36 33 33 31
44 44 45 46 47 49 50 52 53 55 57 58 58 58 59 59 59 60 59 59 59 59 59 58 57 55 54 52 51 52 53 55 55 55 55 56 56 56 55 53 51 50 47 44 42 41 39 38 38 39 41 44 46 46 45 44 45 44 41 39 38 36 34 30 28 26 23 23 28 35 35 39 43 37 30 29 34 32 27 29 33 36 35 33 32 31 30 31
44 45 46 46 47 48 49 50 52 53 55 56 57 58 59 59 60 61 61 61 61 60 60 59 59 58 56 55 53 52 52 54 56 55 55 55 55 55 55 55 54 53 50 48 46 43 41 40 38 37 37 39 42 44 44 43 44 45 43 41 40 38 36 33 30 29 31 32 35 38 39 42 38 28 22 27 33 27 18 24 34 37 35 33 30 28 27 30
45 46 46 47 48 48 49 50 50 52 53 54 56 57 58 58 59 60 61 62 62 62 62 61 61 60 59 57 56 54 52 53 56 56 55 54 55 55 55 55 56 55 53 51 49 47 45 43 40 39 37 37 38 40 42 42 44 45 44 43 41 39 38 35 33 32 35 38 39 39 38 36 29 23 24 28 31 24 15 21 34 36 35 34 32 30 29 29
47 47 48 49 49 50 50 50 51 51 52 53 54 55 56 57 58 59 60 61 62 63 63 63 62 62 61 59 59 57 52 53 57 57 56 55 56 56 55 55 55 56 55 54 52 50 48 46 43 41 39 37 36 37 39 42 43 44 43 42 42 41 39 37 36 36 37 41 41 38 36 32 25 24 27 28 27 22 19 24 31 34 35 35 32 32 30 28
49 49 50 50 50 51 51 52 52 52 53 53 54 54 55 56 57 58 59 60 61 62 62 63 63 63 63 62 62 58 53 55 58 57 58 57 57 57 56 55 55 55 55 54 53 52 50 47 45 43 41 39 38 37 38 39 40 42 42 42 43 42 40 38 39 40 40 42 41 37 36 33 29 28 27 26 23 21 24 27 30 32 34 34 32 31 28 27
50 49 49 49 50 50 51 52 53 53 54 54 54 54 55 55 57 57 58 59 60 61 62 62 62 63 64 63 63 59 55 58 59 58 58 58 56 55 55 54 53 53 53 53 53 52 50 48 47 46 45 43 39 38 38 37 38 41 42 42 43 42 40 40 40 42 42 43 41 38 37 33 31 31 27 24 21 22 26 29 31 31 31 33 33 31 28 29
50 49 49 48 48 49 50 50 51 52 53 54 54 55 55 55 56 57 58 59 60 61 61 61 61 62 63 63 62 58 57 59 60 60 59 55 53 52 52 52 51 51 52 52 52 50 49 48 48 49 47 44 41 40 38 37 37 39 41 43 44 43 42 42 41 42 43 43 42 39 36 31 31 31 27 24 22 24 27 28 32 31 29 32 33 32 31 33
49 49 48 48 48 48 49 49 50 51 51 53 53 54 55 55 56 56 57 59 60 61 61 61 61 61 62 61 59 56 57 60 62 63 59 52 51 51 51 50 50 50 50 50 50 49 48 48 49 49 48 46 44 42 39 38 38 39 41 42 42 43 43 43 42 42 42 43 42 40 37 31 31 30 27 26 24 26 27 27 32 32 31 31 32 36 37 38
48 48 48 49 49 49 49 50 50 50 51 52 53 54 54 55 56 56 57 58 59 60 61 61 61 61 61 60 57 54 55 60 62 64 61 53 51 52 52 51 50 48 47 46 46 47 47 48 48 48 48 48 46 44 42 41 40 41 42 40 40 42 43 42 41 40 40 41 40 39 39 34 31 30 29 28 26 26 28 30 33 34 33 31 32 38 41 41
49 49 49 49 50 50 50 51 51 51 52 52 53 54 54 55 56 56 57 58 58 59 60 61 61 61 61 58 56 54 55 60 62 63 61 54 52 54 53 52 51 49 48 46 45 46 46 47 48 49 49 48 46 46 46 45 45 43 42 40 38 38 38 37 37 38 38 39 37 37 39 35 31 31 30 29 27 27 30 31 33 35 35 32 31 35 37 37
50 50 50 51 51 50 50 51 51 51 51 52 52 53 54 55 56 57 58 58 59 59 59 60 61 62 61 58 55 53 54 58 59 60 58 53 52 55 55 53 51 50 49 48 48 47 46 47 48 47 48 47 48 49 48 47 47 45 41 38 35 34 32 30 31 35 36 36 34 35 38 36 33 32 31 30 28 30 32 31 34 36 35 32 29 31 32 32
52 52 52 51 50 50 49 48 48 49 49 50 51 52 53 54 55 56 58 59 60 60 59 58 60 62 61 58 54 52 52 54 56 57 55 52 52 54 56 53 50 50 50 49 49 49 49 49 48 47 48 48 49 50 50 51 49 45 42 38 34 32 30 27 28 32 33 34 33 34 36 34 33 33 31 31 31 32 33 33 35 36 35 32 30 30 30 30
53 51 49 48 47 45 45 44 44 45 45 46 48 50 51 52 54 55 57 59 61 61 60 58 59 61 59 58 55 52 52 54 56 56 54 54 54 55 56 54 53 52 51 51 51 50 50 50 50 49 49 50 51 52 53 52 48 44 42 38 34 31 29 26 25 28 31 32 32 33 33 31 32 35 32 31 32 33 33 33 34 35 33 32 32 31 31 30
48 45 43 42 40 40 39 40 40 41 42 43 45 47 48 51 53 54 56 59 60 60 61 60 60 60 60 59 57 53 54 55 56 57 55 55 56 57 58 56 55 55 54 53 52 51 51 52 52 52 52 52 52 52 51 48 45 43 41 37 34 31 29 25 21 22 28 31 31 31 32 31 33 35 32 30 32 33 33 33 33 32 30 29 30 30 29 30
42 39 38 36 36 35 35 36 37 38 39 41 43 44 46 49 51 53 56 58 59 59 60 61 61 60 59 59 58 55 56 57 58 58 55 56 57 59 60 59 58 58 57 55 53 51 51 53 54 54 52 50 49 48 47 44 43 42 40 37 34 32 29 26 20 19 25 29 29 28 29 31 34 35 32 30 32 33 33 32 31 30 27 25 27 28 28 29
38 36 35 33 33 33 33 35 36 38 40 41 43 44 46 49 51 54 57 58 57 57 58 60 62 61 59 59 58 55 56 58 59 59 57 57 58 61 61 60 60 59 57 56 53 52 53 54 54 52 49 47 45 45 43 41 42 40 39 37 35 33 30 26 22 19 22 27 27 24 23 26 32 34 32 30 32 33 32 31 30 29 26 23 24 26 27 29
35 34 33 32 32 33 35 37 39 42 44 45 46 47 47 50 52 54 56 56 55 55 56 59 61 61 58 58 59 56 56 57 58 59 59 58 59 61 62 61 60 59 57 56 55 55 55 55 52 49 47 45 45 43 41 40 39 38 38 38 37 35 31 26 24 22 23 25 25 23 21 23 29 31 31 29 29 31 30 29 29 28 25 23 24 25 25 29
34 33 32 31 32 34 37 40 44 46 47 47 47 47 47 47 49 51 53 53 53 53 55 56 59 61 58 56 58 57 56 57 58 58 58 58 58 59 62 62 60 59 58 58 57 56 56 54 51 48 46 46 46 44 42 40 39 39 39 39 37 36 32 26 23 22 23 23 22 21 22 25 29 29 29 28 28 31 30 28 28 26 24 23 24 24 25 28
33 31 29 29 32 33 37 43 45 43 41 39 37 35 34 34 36 40 45 49 51 51 52 53 56 59 55 53 57 58 56 57 58 58 57 57 57 58 61 61 60 59 59 57 56 55 54 51 48 47 47 46 45 43 43 43 41 39 39 39 36 34 31 25 18 18 20 21 21 23 25 28 31 30 28 28 29 30 29 27 26 24 24 24 24 25 25 27
30 27 26 27 29 32 39 42 37 30 25 21 19 18 18 18 19 23 30 39 44 45 48 51 53 54 52 52 57 57 56 57 57 57 57 56 56 57 59 61 61 60 59 57 56 55 53 50 47 47 46 44 42 42 44 44 41 39 39 38 34 32 29 20 16 16 19 23 25 28 30 31 32 29 25 26 28 29 27 25 25 24 24 24 23 25 26 26
24 22 23 25 28 32 38 35 26 20 15 12 11 11 12 12 11 11 14 22 27 32 42 47 47 48 48 50 54 55 55 55 56 58 58 58 57 56 58 61 61 59 58 57 56 55 54 51 47 46 44 42 42 43 44 44 41 40 39 35 31 33 30 23 21 19 20 24 27 31 32 32 31 28 26 26 27 27 25 23 24 24 23 23 22 22 24 25
18 19 21 25 27 31 36 29 20 16 13 12 11 9 10 10 8 7 8 11 11 14 28 39 40 41 41 45 50 51 50 52 55 58 58 58 58 58 59 60 60 60 58 57 57 55 54 51 49 47 44 43 43 44 44 43 42 40 37 33 31 33 31 29 26 24 22 22 29 35 36 35 36 34 32 32 26 23 23 23 23 22 23 24 23 24 25 26
17 19 22 25 26 29 35 27 17 14 13 12 11 9 8 8 5 4 3 3 6 1 12 26 33 36 38 43 48 47 47 50 53 54 54 56 59 60 59 59 60 60 58 58 57 55 53 53 51 47 45 44 44 43 42 41 41 39 34 33 33 33 30 32 29 25 24 26 32 38 39 38 40 38 35 33 26 22 23 23 22 21 22 25 25 25 26 27
19 21 22 23 25 28 34 30 18 14 13 12 11 9 6 5 4 2 5 9 12 6 4 12 21 29 34 41 46 46 45 46 47 49 53 56 58 59 59 59 60 59 57 58 57 55 53 51 49 46 46 45 42 40 40 40 39 35 33 33 34 33 31 35 34 28 26 31 34 35 38 36 37 37 35 32 27 23 21 19 19 20 22 26 26 24 24 26
21 22 21 22 24 26 32 32 23 15 13 12 10 6 3 3 2 1 5 11 13 8 3 2 10 19 28 37 43 45 45 44 46 50 53 54 55 57 58 59 61 59 57 57 57 55 51 49 48 47 45 42 39 37 38 38 35 34 36 36 35 34 34 37 37 33 31 35 33 30 34 31 29 30 32 31 26 22 19 17 18 19 21 24 25 25 23 23
23 23 21 20 21 23 29 30 27 22 16 11 8 5 4 3 3 3 6 9 10 9 3 1 8 18 26 34 38 41 43 45 48 51 53 54 55 56 59 60 61 61 59 58 57 54 50 48 48 47 44 41 38 37 36 37 36 36 38 37 37 37 37 39 39 37 37 39 34 32 34 29 25 26 28 27 25 23 21 21 20 19 21 23 23 24 24 22
24 23 20 19 19 20 24 26 26 25 21 15 11 9 7 6 7 8 7 6 8 8 5 4 9 18 25 31 35 38 41 45 49 50 53 56 57 57 57 57 58 60 61 59 56 54 52 50 48 45 44 43 40 39 38 38 39 39 39 38 39 41 41 42 42 41 41 40 37 36 33 30 27 25 22 19 19 20 22 25 24 21 22 23 21 20 20 19
25 23 19 18 17 16 19 22 24 24 21 17 14 12 11 11 11 12 11 9 8 5 4 4 9 17 20 27 34 37 39 44 48 51 53 57 60 58 55 54 55 58 59 58 56 54 51 47 46 45 45 44 43 42 42 42 42 42 41 41 42 43 45 47 45 43 42 39 38 34 28 28 26 20 17 15 15 16 20 25 24 21 22 22 20 18 16 16
27 21 17 15 13 13 15 18 20 21 20 18 14 13 13 13 13 15 15 13 9 5 4 4 12 19 19 23 33 38 39 43 48 51 54 59 61 59 57 57 56 55 57 57 56 53 50 47 48 48 46 45 45 44 42 41 41 41 40 41 42 42 45 49 46 43 42 39 35 29 25 27 24 16 15 16 14 17 24 27 24 20 21 22 22 20 17 16
26 17 13 11 9 11 13 15 17 19 20 20 18 17 15 14 16 16 15 11 6 6 4 4 13 21 21 22 32 39 40 42 47 51 54 58 60 59 58 56 54 54 57 57 55 52 50 48 48 47 45 44 45 44 39 38 39 39 40 43 43 42 43 46 47 44 43 40 35 30 28 27 23 20 20 17 15 18 24 25 23 20 19 19 21 19 17 15
24 15 9 8 9 11 12 14 17 19 21 21 20 20 18 15 16 18 15 8 6 8 3 6 12 19 21 21 32 41 42 41 44 48 51 55 58 58 57 55 53 54 56 56 54 52 49 46 43 42 42 42 42 40 36 37 39 39 43 46 43 39 37 39 44 45 44 42 39 35 30 24 21 24 26 19 15 18 22 24 23 21 18 16 17 17 15 12
22 15 9 8 9 11 12 14 17 18 19 19 18 19 17 15 14 15 13 7 7 8 4 12 12 16 18 20 30 41 42 40 41 44 49 54 58 58 56 55 53 53 54 53 51 50 49 43 37 38 41 41 39 37 34 34 36 38 43 46 41 35 31 31 38 45 46 45 42 40 34 24 20 24 28 25 24 25 27 28 24 19 16 14 14 15 13 12
23 18 13 11 10 12 14 17 18 18 17 16 17 17 15 12 11 10 10 8 8 4 10 14 12 17 18 19 31 40 40 39 40 43 48 53 58 59 57 54 52 50 51 51 47 46 43 33 27 33 40 41 39 40 38 36 38 37 39 42 43 39 33 31 35 40 45 47 44 41 39 33 26 25 27 28 30 30 29 30 24 17 14 14 15 15 13 12
25 21 17 15 14 14 16 17 17 16 15 15 15 14 12 12 10 9 9 8 4 6 13 12 12 18 19 21 34 40 37 37 42 45 49 54 57 59 57 53 51 49 50 50 44 40 36 28 27 33 38 40 41 42 43 42 41 38 37 40 44 42 37 33 33 33 35 40 42 41 41 40 34 30 28 27 28 30 28 27 25 21 18 16 17 17 14 14
28 25 22 19 16 15 16 15 15 15 15 14 13 10 9 10 10 9 7 3 4 12 14 13 16 19 18 24 36 40 33 32 39 43 48 54 57 59 58 54 51 48 49 48 42 37 33 29 33 35 33 38 41 43 45 43 40 40 39 41 44 44 40 35 30 28 28 29 32 35 37 38 33 28 29 28 28 30 29 28 28 28 24 18 15 14 14 14
29 28 26 23 19 17 16 15 14 14 15 13 11 7 6 8 9 8 5 1 8 16 16 15 19 20 20 27 36 39 30 25 34 38 43 51 56 58 59 54 49 46 46 44 41 40 35 31 35 36 34 37 39 42 45 41 38 41 41 41 44 44 43 39 31 27 28 24 22 25 30 31 27 23 24 27 28 30 30 29 29 28 24 20 18 16 16 15
29 29 29 27 25 22 19 16 14 13 14 13 11 10 8 7 6 5 4 1 9 18 16 16 20 21 26 33 37 37 28 24 33 34 33 46 54 56 57 53 48 46 46 42 41 41 38 34 35 33 32 34 33 37 43 37 32 38 40 40 42 43 43 44 35 25 24 22 18 18 21 23 22 21 23 24 27 31 32 31 28 25 24 25 24 24 22 20
29 30 30 29 28 26 24 22 19 15 13 12 11 12 11 9 7 4 5 7 11 14 14 18 22 24 32 38 36 33 28 27 34 31 27 40 53 54 53 53 49 48 46 42 40 40 40 40 39 29 25 28 28 34 42 37 31 35 40 40 40 41 42 41 34 23 18 19 18 17 18 22 21 21 25 28 29 33 35 34 28 22 21 25 28 27 24 22
27 28 29 29 29 29 27 26 23 18 14 10 9 11 12 10 11 12 12 11 10 12 15 19 23 29 35 36 32 30 28 28 31 27 22 33 48 52 52 53 51 48 46 41 37 38 38 39 39 33 30 31 32 38 45 45 41 40 41 42 39 37 39 38 33 26 21 21 21 17 16 22 24 23 25 29 32 33 34 31 24 17 16 20 22 21 20 22
25 26 28 28 30 31 28 25 24 20 14 10 7 10 12 10 12 13 13 13 12 14 18 20 25 33 34 31 29 27 29 32 29 24 20 26 41 50 54 55 51 48 46 38 34 36 34 33 37 37 36 37 39 43 47 48 46 43 41 43 39 35 36 35 33 31 29 27 23 16 12 18 24 25 24 26 29 29 28 25 21 18 17 17 16 15 17 20
26 26 27 28 31 32 28 25 25 21 14 10 9 10 11 10 11 12 13 14 14 15 19 22 28 36 33 29 29 30 32 33 29 25 25 25 37 48 54 55 50 48 44 33 31 35 30 29 35 33 31 34 35 38 44 46 45 42 40 40 39 36 34 33 34 35 34 30 24 19 17 17 20 22 23 24 26 27 27 26 24 23 21 17 14 15 18 21
28 27 28 29 31 33 29 26 28 25 17 11 11 12 11 10 10 11 12 13 13 14 19 24 32 37 31 26 31 34 31 27 26 29 30 29 36 46 53 53 49 46 40 28 28 32 25 26 33 29 25 28 28 29 37 44 44 41 37 39 41 38 36 36 36 35 35 33 27 24 24 23 20 21 23 24 25 27 29 29 26 24 23 20 18 18 20 22
30 28 27 27 30 33 31 28 28 28 22 15 14 15 13 11 12 12 11 12 14 15 20 28 34 33 26 26 32 31 24 23 27 31 31 30 35 44 51 50 45 42 35 27 30 30 22 23 29 27 25 23 20 21 29 39 44 42 36 38 42 38 34 36 35 32 34 34 30 27 28 27 23 23 25 24 23 24 26 26 25 23 21 21 21 20 21 23
28 28 27 26 26 28 30 30 28 27 24 18 17 18 17 16 17 16 15 16 20 23 28 35 35 30 26 30 33 28 24 29 32 32 34 33 34 44 51 47 41 38 32 29 32 32 26 24 27 26 24 19 15 17 21 28 38 42 39 37 39 38 34 34 32 29 31 33 31 28 28 28 28 28 28 27 25 25 24 22 22 22 21 21 21 21 20 20
24 26 26 25 24 22 23 27 29 27 24 19 16 17 17 17 16 15 15 18 24 28 31 31 29 29 30 31 32 29 30 33 31 32 39 38 35 43 50 46 40 37 33 30 33 34 30 26 26 25 23 19 17 17 17 19 25 36 40 35 34 37 38 35 32 28 28 31 32 29 27 28 31 33 33 31 28 26 25 22 21 21 20 20 22 23 23 21
24 26 25 23 22 20 18 20 25 27 24 18 14 12 13 14 12 11 14 19 25 28 27 24 24 27 29 29 29 28 30 32 32 34 38 39 39 42 46 44 40 37 36 35 35 35 32 27 26 27 26 24 23 24 25 23 19 26 36 35 33 38 41 39 36 31 27 30 33 32 30 30 32 31 32 32 30 29 28 27 25 23 22 22 23 24 24 23
22 23 24 23 21 20 18 16 18 23 24 20 13 9 8 9 8 8 12 19 24 26 25 23 24 24 24 26 27 27 29 32 35 35 36 40 43 43 42 41 39 39 39 37 35 35 31 29 30 31 32 31 29 29 31 29 21 23 33 37 36 38 40 42 41 34 30 32 35 32 30 32 32 29 27 26 26 27 29 29 27 25 24 22 22 22 22 21
Wind_Direction
273 270 268 266 265 264 263 262 261 260 259 257 256 254 253 253 252 252 252 251 249 248 246 243 241 240 240 241 242 242 241 241 240 239 238 238 237 236 236 238 239 238 237 238 238 238 238 238 238 238 238 238 238 239 239 239 240 239 240 241 241 242 242 245 246 246 247 245 243 236 235 243 238 234 236 236 233 234 237 240 247 255 260 262 262 261 264 268
275 271 268 266 265 264 263 261 260 260 259 258 257 255 254 252 251 251 250 250 250 249 248 246 244 241 239 239 240 240 241 240 240 239 238 238 236 235 235 235 237 236 235 236 237 237 237 237 237 237 237 237 237 238 238 238 239 239 240 240 240 242 242 244 244 245 245 243 239 224 219 238 239 234 235 240 241 242 243 246 253 259 259 260 262 264 265 267
276 273 270 267 265 264 262 261 260 259 258 257 256 255 254 253 252 251 250 249 249 248 248 248 246 244 241 239 238 238 239 239 240 238 237 237 236 235 234 232 234 235 233 234 235 236 236 236 236 236 236 236 236 236 238 238 238 238 239 238 238 241 241 240 241 241 241 241 233 219 221 235 242 242 238 241 248 251 253 253 252 254 259 261 260 262 265 267
278 275 272 269 266 264 263 262 260 259 258 257 256 255 254 253 252 251 250 249 248 248 247 247 246 245 244 241 239 238 237 238 238 237 236 237 236 235 233 232 232 233 233 232 233 235 235 235 236 236 236 236 236 236 237 238 238 239 238 237 237 239 240 238 238 239 238 238 219 207 227 242 245 248 244 242 248 254 260 264 258 248 252 258 260 262 265 267
279 276 273 271 268 266 264 262 261 260 258 257 256 255 253 253 252 251 250 249 248 248 246 246 245 244 244 243 241 239 237 236 237 236 236 236 235 234 234 233 232 232 232 231 232 233 234 235 235 236 236 236 236 236 236 238 239 239 238 237 237 237 237 236 236 235 229 234 219 201 222 247 244 243 246 249 252 256 265 272 267 254 249 251 256 260 264 267
281 278 275 272 269 267 265 263 261 260 259 258 256 255 254 252 251 250 249 248 247 247 246 245 245 244 243 243 242 240 238 237 236 235 234 235 235 234 234 233 233 232 232 231 231 232 233 234 235 235 236 236 236 237 236 237 239 239 238 236 236 236 236 235 235 232 219 217 217 208 217 236 241 245 251 256 257 259 267 270 264 257 252 250 253 257 261 264
280 278 275 273 270 267 265 263 262 260 259 258 257 256 255 253 252 250 249 248 247 246 245 245 244 244 242 242 241 239 238 237 237 235 234 234 235 234 233 233 232 232 232 231 231 232 233 233 234 235 236 236 236 236 236 236 238 238 238 236 236 236 235 235 234 234 229 222 220 222 227 234 245 256 254 251 255 255 254 258 258 256 255 253 254 257 257 258
280 278 275 273 271 268 266 264 262 260 259 258 257 256 255 254 252 251 250 248 247 246 245 244 244 243 242 242 241 239 238 237 237 236 233 232 234 233 232 232 231 232 231 231 231 231 232 232 233 234 234 234 235 235 235 234 236 237 237 237 236 235 234 234 234 234 236 236 232 233 238 242 250 257 249 248 253 254 248 250 256 257 256 252 249 253 255 256
282 280 277 275 273 271 268 266 264 261 259 258 256 255 255 254 252 251 250 249 247 246 245 244 243 243 242 241 241 240 238 235 235 235 233 231 231 232 231 230 230 231 231 230 230 230 231 231 232 233 234 234 233 234 234 234 235 236 236 236 237 235 233 232 233 234 236 240 240 239 243 248 249 248 247 249 254 261 262 255 258 260 256 251 247 250 254 257
285 282 280 278 276 274 272 269 267 265 262 260 257 255 254 253 252 251 250 249 248 247 245 244 242 242 241 241 240 240 236 234 235 235 234 231 230 231 230 229 229 229 230 230 230 230 230 231 232 233 233 233 232 232 233 234 234 235 235 235 236 235 234 231 231 233 236 240 241 240 242 245 246 244 245 250 255 264 264 259 259 260 258 252 247 249 252 254
289 286 284 281 278 276 274 272 270 267 265 263 260 258 255 253 252 251 250 249 248 247 246 244 242 241 240 239 239 238 235 234 236 236 235 232 229 230 231 230 229 228 228 229 229 230 230 230 231 231 232 231 231 231 232 233 233 233 233 232 233 233 232 231 231 232 235 239 242 241 239 237 241 245 244 249 255 259 259 259 258 259 260 254 247 248 248 248
292 290 287 284 281 278 275 273 271 269 267 265 263 261 258 255 253 251 249 249 248 247 246 244 242 240 239 238 238 237 234 234 235 235 234 231 229 230 231 232 231 230 228 228 228 228 228 229 229 230 231 231 231 231 232 232 232 233 233 232 232 232 231 230 230 232 234 238 241 242 240 236 239 244 245 248 252 254 255 258 259 260 259 253 247 245 243 244
293 291 289 286 283 280 277 274 271 269 267 265 263 261 260 258 255 252 250 248 247 247 245 244 243 240 238 237 236 234 233 233 234 234 233 228 226 228 229 231 231 231 230 229 228 227 226 227 228 229 230 230 229 230 230 231 232 232 234 234 233 232 232 231 231 232 234 237 240 244 244 239 239 243 246 247 248 253 256 255 257 259 259 254 246 241 239 241
293 291 288 286 283 281 278 276 272 269 266 264 262 260 259 257 256 254 252 249 247 245 245 244 243 241 238 236 235 233 231 233 233 233 232 224 222 224 224 226 228 228 229 229 229 229 227 226 226 227 228 228 229 229 228 228 229 229 231 233 233 233 232 232 233 235 236 238 239 244 246 241 240 242 244 247 248 252 255 253 254 257 257 253 243 239 239 241
294 292 290 288 286 284 281 278 275 272 269 266 263 260 258 256 254 253 252 250 248 245 244 243 242 240 238 235 234 232 230 232 232 232 231 224 220 221 220 221 223 223 223 223 224 226 227 227 226 226 226 227 227 228 228 228 228 228 229 231 233 235 235 233 234 236 238 240 240 243 246 244 242 242 243 245 246 249 251 251 253 253 252 251 245 245 250 251
297 295 293 291 289 286 283 280 277 274 271 267 264 261 259 256 253 251 250 249 247 245 243 242 241 239 237 235 234 232 230 231 232 231 229 224 219 220 219 217 219 221 220 219 220 221 222 223 225 225 225 225 226 227 228 229 230 229 230 232 233 235 237 234 232 235 237 241 241 241 244 244 243 243 243 242 242 245 247 248 251 251 249 250 251 253 260 263
300 298 296 294 291 288 285 282 278 275 272 268 265 262 259 256 253 251 249 247 245 244 243 241 240 238 236 236 233 230 229 229 230 229 227 223 218 220 219 215 215 219 219 219 218 219 220 221 222 222 223 223 224 226 226 228 229 229 230 231 232 234 236 232 229 233 234 237 241 241 242 242 244 242 240 241 240 242 246 248 251 254 254 252 251 250 252 259
302 301 299 296 293 290 287 284 280 276 273 269 265 261 259 256 253 250 248 246 243 242 241 239 238 237 235 235 233 229 227 226 227 226 223 220 217 218 219 216 213 214 217 218 218 218 219 221 221 221 221 222 222 224 225 227 228 229 230 231 232 234 236 232 229 232 235 235 237 242 242 240 243 242 236 238 242 242 245 249 252 256 258 257 254 252 250 254
306 304 302 299 296 293 291 288 284 280 276 271 267 263 259 256 253 250 248 245 242 240 239 238 236 235 233 233 231 227 224 223 224 224 221 218 215 215 216 215 213 213 213 215 217 217 218 219 220 220 220 221 222 224 226 227 229 230 230 231 232 235 237 236 230 229 236 237 233 237 242 239 240 241 236 237 244 246 246 249 252 255 259 261 259 258 258 258
311 308 304 301 299 297 296 293 290 287 283 278 273 268 264 259 255 251 247 244 241 239 237 237 235 233 232 232 230 226 224 222 221 221 220 216 214 214 214 213 212 213 213 214 215 216 218 219 221 222 221 221 222 224 226 226 227 229 230 229 230 233 235 236 231 223 232 239 234 231 239 243 240 239 238 239 244 247 248 251 255 256 257 261 262 261 261 260
312 308 305 303 302 302 302 300 297 294 289 286 281 275 270 264 258 253 248 244 241 239 236 235 234 232 230 230 229 226 223 223 222 219 217 215 213 213 213 212 211 212 212 213 213 214 218 220 222 222 221 222 223 224 225 225 226 227 228 228 227 227 228 230 226 212 221 239 241 234 237 248 248 240 236 237 244 245 247 253 257 257 256 257 260 262 261 256
311 307 305 304 304 305 305 304 301 297 293 289 284 280 275 269 263 257 251 245 241 239 235 234 232 230 230 230 228 225 222 221 222 220 216 213 212 212 212 212 211 211 211 211 211 213 217 220 220 220 220 220 221 222 223 224 225 225 225 227 225 224 221 222 222 207 211 233 244 244 244 257 261 252 240 236 242 245 245 249 252 254 255 253 256 259 261 258
309 309 307 306 307 308 309 308 304 298 293 289 287 283 279 274 268 262 255 247 242 239 235 232 231 228 228 230 227 224 221 219 219 219 218 215 211 211 212 212 210 210 210 210 212 215 218 219 218 218 217 218 218 219 220 221 221 221 223 224 225 226 220 214 219 211 212 229 242 250 255 261 265 260 249 238 237 241 242 245 247 249 251 250 250 253 258 259
308 310 309 310 311 312 314 314 308 301 295 293 290 287 283 280 274 265 257 249 242 239 235 231 229 226 227 229 226 222 219 218 217 216 217 216 213 211 211 211 210 209 209 210 211 214 218 219 217 218 217 217 217 216 219 220 218 218 221 222 221 226 222 209 205 201 210 230 239 248 252 254 260 258 249 241 237 238 240 245 248 249 250 250 249 248 253 257
310 312 312 315 314 315 321 322 317 311 308 304 297 296 297 296 288 271 257 248 241 239 235 231 228 225 226 228 225 221 217 215 215 214 214 214 213 211 210 210 209 208 208 209 210 212 215 216 215 218 219 218 217 216 218 219 217 216 219 220 218 223 219 194 170 181 214 237 237 240 244 248 258 257 247 245 242 239 240 246 250 252 254 255 255 252 253 255
315 316 317 320 317 322 331 331 328 327 327 323 313 308 308 311 312 295 264 245 237 237 233 229 227 224 226 227 224 222 217 214 213 212 211 210 209 210 210 209 208 208 207 207 209 210 212 213 212 216 217 217 216 216 218 218 216 215 217 218 215 221 214 177 159 184 219 241 239 240 243 243 253 259 258 256 249 245 245 247 250 251 252 256 256 252 253 255
325 324 325 325 322 334 344 339 331 335 338 336 334 324 313 315 311 304 287 245 224 235 232 225 222 220 220 223 222 220 216 213 212 211 209 209 208 207 208 208 207 207 206 206 208 209 210 211 210 212 214 215 215 216 216 216 215 214 214 212 209 220 212 175 172 198 212 230 237 240 243 242 247 254 259 259 254 251 250 248 248 250 253 254 252 250 252 255
338 332 333 330 327 344 354 346 331 328 337 339 335 332 334 338 318 317 341 197 159 199 240 222 217 214 212 216 217 216 213 211 211 209 207 208 209 207 207 206 206 205 205 205 206 207 209 210 210 209 211 213 213 215 215 214 214 211 210 210 204 214 206 176 181 201 206 220 230 236 242 245 250 252 253 253 248 246 247 248 253 257 257 251 249 253 256 257
345 340 340 334 334 351 359 357 347 325 325 336 335 333 343 355 342 12 88 115 111 79 283 225 213 210 209 211 212 210 207 206 207 206 204 205 207 208 207 205 204 204 204 204 205 206 207 209 210 208 211 213 212 213 214 212 212 207 207 206 202 207 198 181 188 191 196 217 226 234 241 247 254 254 249 244 238 241 246 248 253 255 255 251 250 257 263 264
349 348 346 338 340 355 1 3 7 355 336 331 334 348 9 32 22 34 130 119 95 66 0 215 195 200 201 206 208 207 203 200 201 202 200 200 204 207 207 204 201 200 202 204 205 205 206 208 210 208 209 213 211 211 213 211 207 203 205 203 197 202 197 191 195 188 194 215 221 232 243 247 253 248 241 237 231 238 246 246 248 251 256 258 257 259 264 273
350 351 350 347 348 357 -0 4 14 18 15 4 359 10 7 3 19 49 122 114 72 57 49 204 184 183 188 198 203 202 198 194 196 198 196 195 199 205 207 205 201 198 199 202 204 204 204 207 209 207 206 208 209 208 209 209 204 202 206 202 196 197 197 200 201 193 202 216 216 224 236 243 247 237 232 234 234 239 248 251 254 259 265 267 265 262 263 275
347 350 354 359 358 356 358 4 14 20 27 34 37 41 39 56 68 61 80 75 49 80 127 218 193 175 181 191 193 193 193 191 192 194 193 193 195 199 205 207 204 202 200 199 201 202 203 205 208 206 203 204 205 204 204 205 203 202 204 202 198 194 194 203 204 198 205 215 218 224 228 234 242 238 231 240 249 252 255 256 257 262 266 265 265 263 262 270
351 354 2 10 7 2 1 5 12 17 22 28 38 46 47 62 60 39 32 17 8 60 128 204 186 168 176 188 185 183 188 189 190 191 191 192 193 194 200 206 206 205 203 199 198 200 200 201 205 206 201 201 203 203 202 204 203 201 200 201 200 195 196 202 204 201 204 212 221 226 223 223 232 239 243 253 266 268 263 259 256 258 262 258 256 256 253 253
2 7 19 25 19 11 6 6 11 16 17 17 23 26 25 35 34 23 21 14 358 25 88 185 189 170 172 186 181 176 182 187 188 189 190 191 191 191 195 201 201 201 203 200 196 198 199 199 202 203 199 198 203 204 203 205 204 199 198 200 200 199 202 205 204 202 203 209 219 221 218 221 220 222 238 243 248 259 262 256 248 250 257 252 247 251 252 249
10 19 37 37 26 12 6 7 10 12 13 12 17 18 18 25 26 23 21 17 16 31 57 196 193 175 173 183 178 172 176 184 188 189 191 191 190 190 193 196 197 198 200 199 197 197 200 202 202 201 198 197 201 203 198 201 205 198 196 201 203 202 205 207 205 204 206 211 215 214 218 226 219 207 218 231 235 244 253 249 239 240 250 246 241 245 252 251
12 24 45 37 19 9 4 3 5 9 9 10 18 21 21 22 22 24 21 20 31 19 30 174 179 173 171 176 174 170 172 180 187 188 189 191 189 188 191 193 196 198 198 197 197 197 199 203 203 200 199 198 202 203 196 199 203 196 196 204 204 202 206 210 208 207 212 215 217 215 214 222 220 206 210 226 236 234 242 246 240 236 239 242 239 237 242 246
12 16 25 24 15 4 359 357 358 0 2 7 17 18 20 24 20 21 18 9 16 19 139 164 166 167 167 170 170 169 170 175 183 185 186 188 186 186 189 192 194 198 198 195 195 197 198 200 200 198 198 197 199 196 190 200 203 197 200 203 197 196 204 212 210 210 214 218 220 218 213 216 225 216 212 224 237 237 242 249 247 236 233 243 244 237 236 237
10 8 8 7 360 350 348 348 348 352 359 9 20 17 17 21 19 21 11 352 4 52 160 165 166 166 166 167 166 167 169 171 178 183 183 184 185 183 186 190 191 195 198 193 190 193 194 193 196 198 196 195 194 187 184 197 201 197 203 203 195 195 200 206 210 211 215 219 222 222 221 219 224 228 223 226 239 243 244 249 247 236 233 247 252 245 237 228
8 6 5 359 352 347 348 350 352 359 9 17 23 22 20 19 15 12 0 351 27 139 162 158 163 169 167 168 167 165 167 171 178 183 182 181 184 183 183 187 188 192 197 192 183 183 183 185 195 200 197 195 193 189 192 201 198 191 199 204 199 198 200 204 209 212 216 221 224 226 229 228 226 229 228 224 236 245 249 254 254 250 253 260 256 243 227 216
9 8 6 1 357 352 352 359 5 9 13 15 20 26 33 33 18 1 356 16 137 162 163 153 161 168 167 173 169 161 161 175 180 180 180 181 183 183 181 183 185 189 195 189 175 170 175 185 197 199 198 197 196 196 201 204 197 189 193 202 202 198 200 203 207 213 216 222 225 224 229 234 229 229 231 229 235 245 253 259 261 262 262 257 247 232 216 213
12 11 10 7 3 356 349 352 359 6 8 6 13 26 35 45 30 3 353 346 175 170 165 159 162 164 164 168 165 156 157 178 180 175 178 182 183 184 181 179 179 183 188 183 171 170 177 188 196 198 199 199 197 197 199 199 196 191 191 200 203 198 199 203 207 217 220 222 228 225 227 231 228 228 234 234 237 243 248 253 256 261 255 242 238 234 227 227
13 13 14 12 10 6 359 349 344 352 359 358 12 28 22 24 24 354 336 301 173 168 165 163 160 160 159 156 155 153 155 174 177 169 174 182 184 185 179 173 173 178 180 178 173 175 181 189 196 200 204 202 195 194 196 191 189 195 197 201 204 199 202 206 208 216 221 220 228 232 226 221 216 218 222 228 240 245 246 247 250 254 249 239 238 239 239 242
13 14 17 18 16 14 12 7 356 353 359 2 16 33 29 29 54 94 121 133 156 165 165 164 159 155 154 151 150 152 157 170 172 162 167 181 184 184 176 168 171 175 173 174 176 176 182 193 199 197 196 199 194 190 191 185 185 197 203 205 205 202 205 206 202 205 212 213 223 231 217 204 200 205 210 217 233 244 248 250 251 252 249 243 242 243 246 250
15 14 16 20 22 18 14 12 9 10 16 18 23 37 39 53 88 106 111 118 140 157 154 155 155 150 148 147 145 148 155 162 162 154 158 179 185 181 171 166 170 171 167 172 177 174 179 191 195 186 179 184 187 186 189 192 194 197 202 206 204 201 204 203 196 197 200 200 211 221 208 196 197 205 209 213 225 238 249 254 251 246 243 245 247 249 251 251
19 17 17 20 24 22 16 11 12 19 29 36 49 58 56 76 106 106 104 111 125 145 147 147 151 148 142 136 135 144 150 147 147 146 146 172 183 178 169 168 170 168 166 172 177 175 177 186 191 190 189 190 192 192 194 197 196 194 197 202 200 196 200 199 193 196 201 198 199 199 192 193 199 207 212 216 225 235 243 246 244 241 240 245 251 253 253 251
20 19 19 22 25 27 25 17 18 27 39 54 68 70 71 95 112 101 100 111 119 139 147 146 148 145 136 127 130 140 142 138 140 142 140 162 180 175 170 170 169 166 167 171 174 176 180 185 189 195 199 202 201 198 198 197 196 196 196 195 194 193 193 191 192 197 201 200 192 185 191 199 203 211 218 222 227 232 236 239 245 249 249 251 252 248 248 249
21 21 22 25 30 37 37 26 26 36 46 62 74 76 85 101 101 93 99 109 118 135 144 144 144 141 132 126 133 140 141 137 142 144 141 158 176 173 171 172 168 164 167 169 168 173 179 183 185 188 193 201 204 199 198 201 202 203 199 193 193 194 189 189 195 200 203 202 195 191 198 203 205 213 221 224 227 230 234 239 247 256 260 260 257 251 251 252
21 22 25 28 35 45 45 33 30 39 49 68 85 85 89 89 79 83 98 111 121 131 136 140 142 140 134 134 140 144 144 138 141 144 142 154 171 171 170 172 168 163 167 172 170 172 177 175 177 182 184 189 198 198 200 203 204 206 205 197 196 194 190 193 199 206 209 206 200 201 207 208 210 215 221 224 228 231 233 235 240 249 255 255 252 251 255 259
22 22 25 27 33 42 44 37 35 41 51 74 94 91 87 85 81 84 93 111 125 128 132 139 143 143 139 140 143 144 138 134 138 141 139 148 167 172 170 170 167 163 169 177 174 177 181 170 166 172 169 165 173 185 197 203 205 209 210 203 198 193 188 193 199 206 215 209 202 206 211 211 214 217 219 224 230 233 233 231 233 237 243 247 248 248 252 256
24 25 25 25 28 31 36 39 41 44 51 70 94 98 92 87 83 82 91 114 129 133 137 141 142 144 144 144 144 141 136 136 140 143 143 147 163 173 173 171 169 169 176 179 177 180 181 168 163 164 156 153 161 173 196 210 209 211 210 204 198 191 188 193 197 202 212 209 203 206 209 211 216 218 219 223 228 232 235 235 234 236 242 249 252 251 253 253
21 24 25 26 28 30 34 40 46 48 49 59 86 109 105 93 85 82 99 122 133 137 141 139 135 141 146 146 144 140 137 140 145 150 151 151 159 171 174 173 172 175 180 183 182 183 177 166 165 163 157 163 169 175 195 212 210 209 208 202 198 196 193 195 199 200 202 200 199 204 210 217 225 225 222 223 227 232 237 239 239 242 248 253 253 252 252 253
18 21 23 25 27 32 36 39 44 47 45 48 67 101 121 110 91 84 110 129 134 137 142 139 136 140 140 138 139 137 135 140 146 153 156 153 158 169 173 172 173 177 182 186 185 184 179 172 170 170 168 172 176 181 196 206 202 198 200 200 202 204 199 198 202 203 199 194 194 201 211 220 227 229 225 219 221 230 237 240 242 246 251 256 257 253 249 250
Height
5707 5706 5705 5705 5704 5704 5704 5704 5704 5704 5705 5705 5706 5707 5708 5710 5711 5712 5714 5715 5717 5719 5720 5722 5724 5726 5728 5730 5733 5736 5740 5742 5745 5749 5754 5756 5755 5758 5763 5765 5766 5769 5771 5773 5775 5778 5781 5784 5787 5789 5791 5793 5796 5798 5800 5802 5804 5805 5806 5808 5810 5814 5817 5820 5822 5825 5827 5831 5836 5838 5839 5841 5842 5842 5843 5843 5843 5842 5842 5844 5847 5852 5853 5851 5852 5854 5855 5856
5700 5699 5698 5697 5697 5697 5697 5697 5697 5697 5697 5698 5699 5700 5701 5702 5704 5705 5707 5708 5710 5712 5714 5716 5717 5720 5722 5724 5727 5730 5734 5737 5739 5744 5749 5749 5750 5755 5759 5760 5762 5764 5767 5769 5771 5774 5776 5779 5782 5784 5787 5789 5792 5794 5796 5798 5800 5802 5804 5806 5809 5813 5816 5818 5820 5822 5824 5827 5832 5834 5834 5835 5835 5837 5838 5836 5836 5837 5839 5841 5846 5850 5849 5849 5849 5851 5853 5854
5693 5692 5691 5690 5690 5689 5689 5689 5689 5690 5690 5691 5691 5692 5693 5694 5696 5698 5700 5701 5703 5705 5707 5709 5711 5713 5716 5718 5720 5724 5728 5731 5734 5739 5742 5742 5746 5750 5753 5756 5757 5759 5763 5766 5767 5769 5772 5775 5777 5779 5782 5785 5788 5790 5792 5794 5796 5799 5801 5804 5808 5811 5813 5815 5817 5819 5822 5824 5830 5832 5831 5830 5829 5832 5832 5832 5833 5834 5835 5837 5844 5848 5847 5847 5847 5848 5849 5851
5686 5685 5684 5683 5682 5682 5681 5682 5682 5682 5682 5683 5684 5685 5686 5687 5688 5690 5692 5694 5696 5698 5700 5702 5704 5707 5709 5712 5715 5718 5722 5725 5728 5732 5734 5736 5740 5744 5747 5751 5753 5755 5759 5762 5764 5765 5768 5770 5772 5775 5777 5781 5784 5786 5789 5791 5794 5796 5798 5803 5807 5808 5810 5813 5815 5817 5821 5823 5826 5827 5826 5824 5825 5827 5828 5830 5832 5832 5831 5834 5840 5844 5844 5843 5843 5846 5846 5847
5679 5678 5677 5676 5675 5675 5674 5674 5674 5674 5675 5675 5676 5677 5678 5679 5680 5682 5684 5686 5688 5691 5693 5695 5697 5700 5703 5705 5709 5712 5715 5719 5721 5725 5728 5730 5734 5738 5742 5746 5749 5751 5755 5758 5760 5762 5764 5766 5769 5771 5774 5777 5780 5782 5786 5788 5790 5793 5796 5801 5803 5805 5807 5811 5813 5816 5819 5821 5821 5821 5820 5819 5819 5822 5826 5830 5831 5830 5832 5833 5836 5837 5839 5840 5840 5843 5843 5844
5673 5671 5670 5669 5668 5668 5667 5667 5666 5666 5667 5667 5668 5669 5670 5671 5672 5674 5676 5678 5680 5683 5685 5688 5690 5693 5696 5699 5702 5706 5709 5712 5714 5718 5721 5723 5728 5733 5737 5741 5744 5747 5750 5754 5756 5758 5761 5763 5765 5768 5770 5773 5776 5779 5783 5785 5787 5789 5794 5797 5799 5802 5805 5808 5811 5812 5814 5816 5817 5816 5816 5815 5815 5821 5827 5829 5827 5829 5833 5832 5831 5832 5834 5837 5838 5840 5841 5841
5667 5665 5664 5663 5661 5661 5660 5659 5659 5659 5659 5659 5660 5661 5661 5663 5664 5665 5668 5669 5672 5675 5677 5680 5683 5686 5689 5691 5695 5699 5703 5705 5707 5711 5715 5719 5722 5727 5731 5735 5739 5742 5745 5749 5752 5755 5757 5760 5762 5765 5767 5770 5773 5776 5779 5781 5783 5786 5790 5793 5796 5799 5802 5805 5808 5809 5810 5810 5811 5811 5813 5814 5816 5822 5826 5826 5824 5828 5833 5829 5827 5828 5830 5834 5836 5837 5838 5837
5661 5659 5657 5656 5655 5654 5653 5652 5652 5651 5651 5651 5652 5652 5653 5654 5655 5657 5659 5661 5664 5666 5669 5672 5675 5678 5681 5685 5688 5692 5697 5699 5701 5704 5709 5714 5717 5720 5724 5729 5733 5736 5740 5744 5747 5750 5753 5756 5759 5761 5764 5767 5770 5772 5775 5777 5779 5782 5786 5789 5792 5795 5799 5802 5804 5806 5807 5806 5807 5809 5812 5814 5817 5821 5822 5822 5823 5826 5830 5827 5823 5825 5827 5830 5833 5834 5835 5835
5653 5652 5650 5648 5647 5646 5645 5645 5644 5644 5644 5644 5644 5644 5645 5646 5647 5649 5650 5653 5655 5657 5660 5663 5667 5670 5673 5678 5680 5685 5693 5692 5692 5696 5702 5707 5709 5712 5717 5722 5726 5730 5734 5738 5742 5745 5748 5751 5755 5758 5761 5764 5767 5769 5771 5773 5775 5779 5783 5786 5788 5791 5795 5798 5801 5802 5803 5802 5804 5808 5810 5813 5817 5819 5819 5820 5822 5824 5826 5824 5822 5823 5824 5826 5829 5831 5832 5834
5646 5644 5642 5641 5640 5638 5637 5637 5636 5636 5635 5636 5636 5636 5637 5638 5639 5640 5642 5644 5646 5649 5652 5654 5658 5661 5665 5670 5672 5681 5686 5682 5684 5690 5694 5699 5703 5707 5711 5715 5720 5724 5729 5733 5737 5740 5744 5748 5752 5754 5757 5760 5763 5765 5767 5769 5773 5776 5779 5782 5784 5787 5791 5794 5796 5798 5799 5799 5801 5806 5808 5811 5813 5815 5816 5819 5821 5823 5822 5820 5819 5821 5821 5823 5827 5830 5831 5832
5638 5636 5635 5633 5632 5630 5629 5628 5628 5627 5627 5627 5627 5628 5629 5630 5631 5632 5634 5636 5638 5640 5643 5646 5649 5653 5658 5661 5667 5676 5675 5673 5680 5684 5687 5694 5700 5705 5707 5711 5716 5720 5724 5728 5732 5736 5740 5744 5747 5749 5752 5755 5759 5762 5764 5766 5769 5771 5774 5777 5779 5782 5786 5789 5792 5794 5795 5796 5799 5802 5804 5808 5810 5811 5815 5818 5820 5820 5819 5817 5816 5818 5819 5821 5825 5827 5828 5828
5630 5628 5626 5625 5623 5622 5621 5620 5620 5619 5619 5619 5619 5619 5620 5621 5622 5624 5626 5627 5629 5632 5634 5637 5641 5645 5649 5653 5663 5668 5665 5668 5674 5676 5681 5691 5698 5702 5705 5709 5713 5716 5720 5723 5727 5732 5736 5739 5741 5744 5748 5752 5756 5758 5761 5763 5766 5768 5769 5772 5775 5778 5781 5784 5787 5790 5792 5793 5796 5798 5800 5805 5808 5810 5813 5816 5818 5817 5816 5815 5814 5816 5817 5818 5822 5824 5824 5823
5622 5620 5618 5616 5615 5614 5613 5612 5611 5611 5611 5610 5610 5611 5611 5612 5613 5615 5617 5619 5621 5623 5626 5629 5633 5638 5641 5648 5657 5658 5656 5662 5666 5668 5676 5686 5692 5697 5701 5705 5709 5712 5716 5720 5724 5727 5731 5734 5737 5740 5744 5748 5751 5754 5758 5760 5762 5764 5765 5768 5772 5774 5776 5780 5783 5786 5789 5790 5794 5795 5797 5802 5806 5808 5811 5813 5814 5814 5814 5813 5812 5813 5813 5814 5818 5819 5818 5816
5615 5612 5610 5608 5607 5605 5604 5603 5602 5602 5602 5602 5602 5602 5603 5604 5605 5607 5608 5610 5613 5615 5618 5622 5626 5630 5634 5643 5648 5648 5650 5655 5658 5662 5670 5680 5685 5688 5693 5698 5702 5707 5712 5717 5721 5723 5726 5729 5732 5736 5740 5743 5747 5750 5753 5755 5757 5759 5761 5764 5767 5769 5773 5777 5780 5783 5786 5788 5792 5793 5793 5799 5804 5806 5808 5810 5811 5812 5812 5810 5809 5808 5808 5809 5812 5812 5812 5813
5607 5604 5602 5600 5598 5596 5595 5593 5593 5592 5592 5592 5592 5593 5594 5595 5596 5597 5599 5601 5604 5607 5611 5614 5618 5622 5628 5636 5639 5640 5644 5648 5652 5657 5663 5674 5679 5680 5686 5691 5695 5701 5706 5711 5715 5718 5722 5725 5727 5731 5735 5739 5743 5746 5748 5750 5752 5755 5758 5761 5764 5767 5770 5775 5779 5781 5783 5785 5789 5791 5791 5796 5801 5803 5805 5807 5809 5809 5808 5806 5804 5804 5804 5807 5809 5810 5812 5814
5599 5596 5593 5591 5589 5587 5586 5584 5583 5582 5582 5583 5582 5583 5584 5585 5586 5588 5590 5591 5593 5598 5603 5607 5611 5615 5622 5629 5631 5634 5639 5643 5647 5651 5658 5668 5674 5676 5680 5685 5691 5696 5700 5704 5708 5712 5716 5719 5723 5727 5731 5735 5738 5741 5744 5746 5748 5751 5755 5758 5762 5765 5768 5773 5776 5778 5781 5783 5786 5788 5788 5793 5797 5799 5801 5804 5806 5805 5803 5802 5801 5801 5803 5806 5808 5810 5813 5814
5590 5587 5584 5582 5580 5578 5576 5575 5574 5573 5573 5573 5573 5573 5574 5575 5576 5578 5580 5581 5584 5589 5594 5599 5603 5607 5616 5620 5623 5628 5633 5637 5640 5645 5653 5662 5669 5671 5674 5680 5686 5690 5695 5699 5702 5706 5710 5714 5718 5722 5726 5730 5733 5736 5739 5741 5744 5749 5753 5756 5760 5763 5766 5770 5773 5776 5778 5780 5783 5784 5786 5791 5793 5795 5798 5800 5801 5800 5799 5800 5800 5801 5802 5805 5807 5810 5813 5814
5582 5579 5576 5573 5571 5569 5567 5566 5565 5564 5563 5563 5563 5563 5564 5565 5566 5568 5569 5570 5574 5580 5585 5591 5594 5600 5608 5610 5614 5621 5626 5630 5634 5638 5646 5654 5661 5665 5669 5675 5680 5683 5688 5692 5697 5701 5705 5709 5713 5717 5721 5724 5727 5729 5732 5737 5742 5747 5751 5755 5759 5762 5764 5768 5771 5774 5775 5778 5780 5781 5784 5788 5789 5790 5795 5797 5796 5796 5798 5799 5799 5800 5802 5804 5806 5808 5810 5812
5574 5571 5568 5566 5564 5562 5560 5558 5557 5556 5555 5554 5554 5554 5555 5555 5556 5558 5558 5560 5565 5572 5576 5581 5585 5593 5598 5600 5606 5613 5617 5623 5626 5631 5639 5646 5652 5657 5661 5668 5672 5676 5681 5686 5691 5696 5700 5704 5707 5710 5714 5718 5722 5726 5731 5737 5742 5746 5749 5754 5758 5760 5763 5766 5770 5772 5772 5774 5777 5779 5781 5785 5785 5787 5792 5794 5792 5793 5796 5796 5797 5798 5801 5803 5804 5805 5807 5809
5568 5565 5563 5560 5558 5556 5554 5552 5551 5549 5548 5547 5546 5546 5546 5546 5546 5546 5546 5550 5558 5563 5568 5572 5578 5584 5589 5592 5598 5604 5610 5614 5618 5624 5633 5639 5645 5650 5654 5660 5665 5669 5675 5681 5687 5692 5696 5698 5702 5706 5711 5716 5721 5725 5730 5736 5740 5744 5748 5752 5755 5758 5761 5764 5768 5770 5770 5770 5774 5778 5779 5780 5782 5784 5789 5791 5789 5790 5793 5794 5795 5797 5799 5802 5802 5803 5804 5805
5563 5560 5558 5556 5553 5551 5549 5547 5545 5543 5541 5539 5538 5538 5538 5536 5535 5535 5537 5544 5551 5555 5560 5565 5568 5575 5582 5585 5590 5597 5604 5609 5613 5618 5625 5632 5638 5642 5648 5653 5658 5663 5671 5677 5682 5687 5691 5693 5698 5704 5710 5716 5721 5724 5729 5733 5737 5741 5746 5749 5752 5755 5758 5762 5766 5768 5768 5768 5771 5775 5777 5776 5778 5781 5785 5787 5786 5787 5791 5792 5793 5795 5797 5801 5801 5801 5802 5802
5558 5556 5554 5552 5549 5547 5545 5542 5539 5536 5534 5532 5530 5529 5528 5527 5526 5527 5529 5536 5543 5547 5551 5556 5561 5569 5575 5577 5581 5590 5597 5604 5609 5614 5618 5624 5630 5636 5643 5648 5653 5660 5667 5671 5676 5680 5684 5689 5695 5702 5708 5714 5717 5722 5726 5730 5734 5739 5743 5745 5748 5751 5755 5759 5763 5765 5766 5767 5769 5771 5775 5775 5775 5778 5781 5784 5783 5784 5788 5790 5791 5792 5795 5798 5799 5799 5800 5800
5554 5552 5550 5548 5546 5543 5540 5537 5533 5529 5525 5523 5521 5519 5518 5517 5517 5518 5521 5527 5533 5537 5543 5549 5553 5560 5566 5569 5574 5583 5591 5597 5602 5609 5615 5620 5626 5632 5637 5642 5650 5657 5661 5666 5671 5676 5680 5686 5693 5699 5704 5708 5713 5718 5722 5726 5731 5735 5739 5742 5746 5749 5752 5756 5760 5763 5764 5765 5767 5769 5772 5774 5774 5774 5777 5780 5779 5780 5784 5787 5789 5791 5793 5795 5796 5797 5799 5799
5551 5549 5547 5545 5543 5540 5536 5531 5525 5520 5517 5515 5513 5512 5511 5510 5509 5510 5513 5517 5524 5530 5535 5541 5545 5553 5560 5562 5566 5575 5585 5591 5596 5604 5610 5617 5623 5627 5632 5640 5647 5651 5656 5663 5669 5674 5679 5686 5692 5697 5700 5705 5710 5715 5719 5722 5728 5732 5735 5739 5744 5748 5750 5754 5759 5763 5763 5764 5767 5769 5770 5770 5770 5772 5774 5776 5776 5777 5781 5785 5787 5789 5791 5793 5794 5795 5796 5797
5547 5545 5544 5542 5540 5536 5532 5526 5519 5514 5512 5511 5509 5508 5507 5506 5504 5504 5506 5510 5518 5524 5527 5533 5540 5548 5552 5553 5560 5570 5577 5584 5591 5599 5605 5612 5619 5624 5630 5635 5640 5646 5654 5660 5665 5670 5676 5682 5689 5693 5698 5704 5708 5712 5715 5719 5726 5730 5733 5737 5743 5746 5749 5754 5759 5762 5762 5762 5764 5766 5767 5768 5768 5770 5772 5772 5773 5775 5780 5783 5785 5787 5789 5790 5792 5793 5794 5794
5544 5543 5542 5540 5538 5534 5528 5522 5517 5513 5511 5510 5509 5508 5506 5505 5504 5503 5503 5506 5513 5516 5519 5527 5536 5542 5546 5549 5556 5564 5571 5581 5588 5592 5598 5605 5613 5620 5624 5629 5636 5644 5651 5656 5661 5666 5671 5678 5685 5690 5695 5701 5705 5709 5712 5717 5723 5727 5731 5737 5742 5744 5748 5752 5757 5760 5760 5760 5762 5763 5766 5767 5767 5768 5769 5769 5771 5774 5778 5780 5782 5784 5787 5788 5789 5790 5791 5791
5543 5542 5540 5538 5536 5532 5527 5521 5517 5515 5512 5511 5509 5508 5506 5505 5505 5504 5503 5505 5510 5512 5515 5522 5529 5535 5540 5543 5549 5559 5569 5578 5580 5585 5594 5602 5607 5612 5618 5626 5634 5640 5646 5652 5656 5661 5668 5674 5680 5686 5691 5697 5700 5704 5709 5715 5720 5725 5731 5736 5739 5742 5746 5749 5752 5756 5758 5761 5761 5761 5763 5766 5766 5767 5767 5767 5769 5772 5775 5778 5780 5782 5785 5786 5787 5787 5788 5789
5543 5541 5539 5537 5535 5532 5526 5520 5517 5515 5513 5511 5510 5509 5507 5506 5505 5505 5504 5506 5510 5511 5513 5518 5523 5529 5532 5536 5546 5556 5564 5569 5575 5585 5594 5598 5602 5608 5614 5622 5630 5636 5642 5647 5652 5659 5665 5669 5675 5682 5687 5692 5697 5702 5707 5713 5718 5724 5730 5734 5737 5741 5745 5748 5748 5752 5757 5759 5758 5758 5759 5761 5762 5763 5765 5765 5767 5770 5773 5776 5779 5781 5782 5783 5784 5785 5785 5787
5543 5541 5539 5536 5534 5531 5527 5521 5516 5514 5513 5512 5511 5509 5508 5507 5506 5506 5506 5507 5510 5512 5513 5516 5520 5524 5528 5534 5542 5548 5556 5565 5574 5581 5586 5592 5599 5605 5612 5618 5625 5633 5639 5645 5650 5656 5660 5667 5674 5680 5684 5689 5696 5701 5706 5710 5716 5724 5728 5731 5736 5740 5744 5745 5744 5747 5751 5752 5752 5754 5755 5756 5757 5759 5761 5762 5765 5769 5772 5775 5777 5778 5779 5779 5781 5782 5783 5784
5543 5541 5539 5536 5533 5531 5527 5522 5517 5515 5513 5512 5511 5510 5509 5509 5508 5508 5508 5509 5511 5513 5514 5516 5518 5521 5526 5532 5537 5544 5553 5562 5566 5570 5577 5588 5596 5603 5609 5614 5619 5628 5636 5643 5647 5652 5660 5666 5671 5677 5683 5689 5696 5700 5704 5709 5715 5721 5724 5727 5733 5738 5741 5742 5741 5744 5746 5745 5747 5750 5752 5754 5754 5755 5757 5760 5764 5768 5770 5773 5775 5776 5776 5776 5778 5780 5781 5782
5544 5541 5539 5536 5534 5531 5528 5524 5520 5517 5514 5513 5512 5511 5511 5510 5510 5510 5510 5511 5512 5514 5515 5516 5516 5517 5523 5529 5534 5543 5549 5553 5557 5564 5574 5583 5590 5598 5604 5608 5615 5623 5631 5638 5644 5651 5658 5662 5667 5674 5681 5687 5692 5697 5702 5706 5712 5716 5719 5725 5730 5734 5738 5740 5739 5741 5741 5741 5745 5747 5750 5753 5752 5752 5756 5759 5764 5766 5768 5770 5772 5774 5774 5774 5775 5777 5779 5780
5544 5541 5539 5537 5534 5532 5530 5526 5523 5520 5517 5515 5514 5513 5513 5512 5512 5512 5512 5513 5513 5515 5516 5517 5516 5517 5521 5525 5530 5538 5543 5547 5555 5564 5571 5578 5585 5593 5601 5609 5616 5622 5627 5634 5642 5649 5654 5658 5664 5671 5677 5682 5688 5693 5698 5702 5707 5711 5716 5721 5725 5729 5734 5735 5735 5736 5738 5740 5743 5745 5749 5751 5750 5752 5756 5760 5762 5764 5766 5768 5770 5771 5771 5772 5773 5775 5776 5778
5544 5542 5539 5537 5535 5533 5531 5528 5525 5522 5521 5519 5517 5516 5515 5514 5514 5514 5514 5515 5515 5515 5516 5517 5517 5518 5521 5524 5529 5535 5541 5547 5555 5561 5568 5575 5581 5590 5600 5608 5615 5621 5627 5633 5639 5644 5649 5655 5660 5666 5673 5679 5684 5688 5692 5696 5701 5706 5712 5716 5719 5724 5728 5729 5731 5734 5737 5740 5741 5743 5747 5749 5749 5752 5754 5757 5760 5762 5764 5765 5767 5768 5769 5770 5772 5774 5775 5777
5546 5542 5540 5538 5536 5534 5532 5529 5527 5525 5523 5522 5520 5519 5517 5516 5516 5516 5516 5516 5516 5516 5517 5518 5518 5519 5521 5525 5528 5532 5540 5548 5553 5558 5564 5570 5577 5586 5595 5602 5611 5620 5628 5632 5636 5641 5646 5650 5655 5662 5670 5676 5680 5685 5690 5695 5699 5704 5710 5713 5716 5721 5723 5726 5730 5733 5735 5737 5739 5742 5746 5747 5749 5752 5752 5754 5757 5759 5761 5762 5765 5767 5768 5770 5772 5774 5776 5777
5548 5544 5541 5539 5537 5534 5532 5530 5528 5527 5525 5523 5522 5520 5519 5518 5518 5517 5517 5517 5517 5518 5518 5519 5519 5520 5521 5525 5528 5532 5540 5547 5552 5557 5563 5569 5576 5585 5594 5602 5611 5618 5623 5629 5635 5641 5646 5650 5655 5662 5669 5674 5677 5682 5690 5694 5697 5704 5709 5711 5713 5718 5721 5725 5730 5732 5733 5735 5738 5741 5743 5745 5748 5751 5751 5752 5755 5757 5757 5759 5763 5766 5767 5769 5772 5774 5775 5776
5550 5547 5543 5541 5538 5535 5533 5531 5530 5528 5526 5524 5523 5522 5521 5520 5519 5518 5518 5518 5518 5518 5519 5519 5520 5521 5523 5526 5529 5533 5538 5545 5551 5556 5563 5570 5578 5587 5595 5603 5611 5616 5620 5628 5635 5641 5646 5650 5656 5662 5668 5673 5677 5683 5689 5691 5695 5702 5705 5706 5712 5717 5720 5724 5728 5731 5732 5734 5736 5740 5742 5743 5746 5748 5749 5750 5752 5754 5755 5757 5760 5763 5765 5767 5770 5772 5773 5773
5551 5549 5545 5543 5540 5537 5535 5533 5531 5529 5528 5526 5524 5522 5522 5521 5520 5520 5520 5520 5520 5519 5520 5521 5522 5524 5526 5528 5531 5535 5539 5545 5551 5556 5562 5569 5577 5585 5593 5601 5609 5616 5622 5629 5636 5642 5646 5650 5656 5662 5666 5671 5676 5682 5687 5689 5694 5700 5702 5705 5712 5716 5718 5721 5725 5728 5730 5731 5734 5737 5741 5742 5744 5746 5747 5748 5749 5751 5752 5755 5758 5762 5764 5767 5769 5770 5771 5772
5552 5550 5547 5544 5542 5539 5536 5534 5532 5530 5528 5527 5525 5523 5523 5522 5521 5521 5521 5521 5521 5520 5521 5522 5523 5525 5528 5530 5533 5537 5541 5545 5550 5556 5561 5569 5576 5584 5592 5600 5609 5617 5624 5630 5636 5643 5648 5653 5657 5660 5663 5668 5674 5679 5683 5686 5691 5698 5702 5706 5710 5712 5714 5717 5720 5723 5726 5728 5731 5735 5738 5741 5742 5745 5746 5746 5747 5748 5750 5753 5757 5761 5764 5767 5768 5769 5770 5771
5554 5551 5548 5545 5542 5540 5537 5535 5533 5531 5529 5527 5525 5524 5524 5523 5522 5523 5522 5522 5521 5521 5522 5523 5525 5527 5529 5531 5535 5540 5544 5547 5551 5556 5562 5569 5577 5583 5591 5600 5609 5617 5625 5630 5636 5644 5649 5653 5656 5658 5662 5667 5671 5676 5679 5682 5688 5695 5700 5704 5707 5711 5713 5715 5717 5720 5724 5727 5729 5733 5735 5737 5741 5743 5745 5746 5745 5746 5748 5751 5755 5759 5762 5765 5766 5767 5769 5770
5555 5552 5549 5546 5543 5540 5538 5535 5533 5532 5529 5527 5526 5525 5524 5523 5523 5523 5523 5523 5522 5523 5524 5525 5526 5528 5531 5533 5536 5541 5547 5551 5553 5558 5565 5571 5578 5584 5590 5600 5609 5618 5625 5630 5636 5644 5648 5650 5652 5656 5661 5665 5669 5674 5677 5681 5687 5692 5695 5699 5704 5709 5712 5715 5717 5719 5722 5725 5728 5731 5732 5735 5739 5741 5743 5745 5745 5745 5747 5749 5752 5756 5759 5762 5763 5764 5766 5768
5557 5554 5550 5547 5544 5541 5538 5536 5534 5532 5530 5528 5527 5525 5524 5523 5523 5524 5524 5523 5523 5523 5525 5526 5527 5529 5532 5535 5538 5542 5548 5554 5557 5560 5566 5572 5578 5584 5590 5600 5610 5618 5626 5631 5635 5641 5646 5648 5651 5654 5658 5663 5668 5673 5677 5681 5687 5690 5692 5695 5700 5706 5710 5712 5715 5717 5720 5723 5726 5729 5731 5734 5738 5740 5741 5742 5743 5744 5746 5748 5751 5754 5757 5759 5760 5761 5763 5764
5559 5555 5551 5548 5544 5542 5539 5536 5534 5532 5531 5530 5528 5526 5524 5523 5523 5524 5524 5523 5524 5525 5527 5528 5530 5532 5534 5537 5540 5544 5548 5553 5559 5563 5567 5573 5579 5586 5593 5602 5611 5618 5625 5631 5634 5639 5644 5647 5650 5654 5658 5664 5669 5674 5678 5682 5687 5690 5692 5694 5699 5704 5707 5709 5714 5717 5719 5723 5725 5727 5730 5733 5736 5738 5739 5739 5739 5741 5743 5746 5749 5752 5754 5755 5756 5757 5758 5760
5561 5557 5553 5550 5546 5543 5540 5537 5535 5533 5532 5531 5529 5527 5525 5524 5523 5523 5524 5525 5526 5527 5529 5530 5532 5534 5537 5540 5543 5546 5549 5554 5560 5565 5570 5575 5580 5589 5598 5605 5611 5617 5624 5629 5632 5637 5642 5645 5648 5654 5659 5664 5669 5674 5678 5680 5683 5687 5691 5693 5697 5701 5705 5708 5714 5718 5719 5722 5724 5725 5728 5732 5735 5737 5738 5738 5738 5738 5739 5743 5748 5750 5750 5751 5751 5753 5755 5757
5563 5560 5556 5553 5549 5545 5542 5539 5536 5534 5533 5532 5531 5529 5527 5527 5526 5526 5527 5528 5529 5530 5531 5533 5535 5537 5541 5544 5546 5549 5552 5556 5563 5568 5572 5577 5583 5591 5600 5607 5612 5617 5623 5628 5631 5635 5639 5643 5647 5651 5654 5659 5664 5669 5673 5675 5678 5682 5687 5690 5694 5699 5703 5708 5713 5716 5718 5721 5723 5724 5727 5730 5733 5734 5736 5737 5737 5737 5738 5741 5745 5747 5747 5748 5749 5751 5752 5753
5566 5562 5559 5555 5552 5548 5545 5542 5539 5536 5534 5533 5532 5531 5530 5530 5530 5530 5530 5531 5532 5533 5534 5536 5538 5541 5546 5548 5550 5553 5555 5558 5565 5570 5575 5580 5586 5593 5601 5607 5612 5617 5623 5628 5632 5635 5638 5641 5645 5648 5650 5654 5657 5661 5665 5669 5673 5678 5683 5688 5693 5696 5701 5707 5710 5713 5716 5718 5721 5723 5726 5729 5731 5732 5733 5735 5736 5737 5738 5739 5741 5742 5744 5746 5748 5749 5749 5750
5567 5564 5561 5558 5554 5551 5548 5545 5542 5538 5537 5536 5535 5534 5533 5533 5534 5534 5534 5534 5535 5536 5538 5539 5541 5545 5549 5552 5554 5558 5561 5563 5566 5571 5576 5582 5589 5595 5602 5609 5613 5618 5623 5628 5631 5634 5637 5640 5644 5649 5652 5655 5659 5662 5666 5670 5673 5677 5681 5687 5691 5694 5699 5705 5708 5710 5713 5717 5720 5721 5724 5727 5729 5730 5731 5733 5735 5736 5736 5737 5738 5739 5742 5745 5746 5747 5747 5748
5569 5566 5563 5560 5557 5554 5551 5548 5545 5542 5540 5539 5538 5537 5537 5537 5538 5537 5537 5538 5539 5540 5541 5543 5546 5550 5552 5555 5558 5562 5565 5566 5568 5572 5577 5584 5591 5597 5604 5611 5616 5619 5623 5627 5630 5634 5637 5640 5644 5649 5653 5657 5661 5666 5669 5672 5674 5677 5681 5686 5689 5692 5697 5702 5705 5708 5711 5715 5718 5719 5721 5723 5726 5728 5729 5731 5733 5734 5735 5736 5737 5739 5741 5743 5745 5745 5746 5747
5572 5568 5566 5563 5560 5557 5555 5552 5549 5546 5544 5543 5542 5541 5541 5541 5541 5541 5541 5541 5542 5544 5545 5546 5550 5553 5554 5557 5560 5563 5565 5567 5571 5575 5579 5586 5594 5599 5606 5613 5617 5619 5622 5626 5629 5633 5637 5640 5645 5649 5653 5657 5662 5666 5669 5671 5674 5676 5680 5684 5688 5692 5696 5699 5703 5707 5710 5713 5717 5717 5719 5722 5724 5726 5727 5728 5730 5731 5733 5735 5737 5738 5739 5741 5742 5743 5744 5746
5575 5572 5569 5566 5563 5561 5558 5556 5553 5550 5548 5548 5546 5546 5546 5545 5545 5544 5544 5545 5546 5547 5548 5550 5554 5556 5557 5559 5562 5564 5566 5568 5573 5578 5582 5587 5595 5600 5605 5611 5614 5617 5621 5625 5629 5632 5636 5640 5645 5649 5653 5656 5661 5664 5666 5670 5673 5675 5679 5683 5687 5692 5696 5698 5701 5705 5708 5711 5714 5715 5716 5719 5721 5722 5724 5726 5727 5728 5730 5732 5734 5736 5737 5738 5740 5741 5743 5744
5578 5575 5571 5569 5566 5564 5562 5560 5557 5555 5553 5552 5551 5550 5549 5549 5549 5549 5548 5549 5549 5551 5552 5553 5556 5558 5561 5563 5566 5568 5569 5572 5575 5579 5582 5588 5596 5602 5606 5609 5613 5616 5620 5624 5627 5631 5636 5641 5645 5649 5653 5656 5659 5662 5665 5668 5671 5674 5678 5682 5686 5691 5694 5696 5699 5701 5705 5709 5712 5712 5713 5714 5715 5718 5720 5723 5724 5726 5728 5730 5732 5734 5735 5737 5738 5739 5740 5741
5579 5576 5574 5572 5570 5567 5565 5563 5561 5558 5557 5556 5556 5555 5554 5553 5553 5553 5553 5553 5553 5554 5556 5557 5558 5561 5564 5566 5568 5571 5573 5575 5578 5581 5584 5589 5597 5604 5607 5610 5613 5617 5620 5623 5627 5631 5637 5641 5645 5649 5651 5654 5657 5660 5662 5665 5669 5672 5677 5681 5683 5687 5691 5694 5696 5698 5702 5706 5709 5710 5710 5711 5713 5716 5719 5721 5723 5725 5726 5728 5730 5732 5734 5735 5736 5737 5738 5739
5581 5578 5576 5574 5572 5570 5568 5566 5564 5562 5561 5559 5558 5558 5557 5557 5557 5557 5556 5557 5557 5558 5559 5561 5562 5565 5568 5570 5571 5573 5576 5578 5581 5585 5587 5590 5597 5604 5608 5611 5615 5618 5620 5624 5628 5633 5638 5641 5644 5647 5649 5652 5655 5658 5660 5663 5667 5670 5674 5678 5681 5684 5689 5692 5694 5696 5699 5703 5707 5708 5708 5709 5711 5713 5716 5720 5722 5723 5724 5726 5728 5730 5731 5733 5734 5735 5736 5737